FW1555 Weather Reports


time (UTC)temp
C
wind
direction
speed
KPH
gust
KPH
rain 1hr
cm
rain 24hr
cm
rain mn
cm
humidity
%
barometer
mb
20260903030109 19 0 0.0 0.0 0.00 0.41 0.41 98 1018.1
20260903024553 19 0 0.0 0.0 0.00 0.41 0.41 98 1018.4
20260903023051 19 0 0.0 0.0 0.00 0.41 0.41 98 1018.2
20260903021549 19 0 0.0 0.0 0.00 0.41 0.41 98 1018.7
20260903020100 18 0 0.0 0.0 0.00 0.41 0.41 97 1018.6
20260903014609 18 0 0.0 0.0 0.00 0.41 0.41 97 1018.6
20260903013105 18 0 0.0 0.0 0.00 0.41 0.41 97 1018.9
20260903011612 18 0 0.0 0.0 0.00 0.41 0.41 97 1019.0
20260903010117 18 0 0.0 0.0 0.00 0.41 0.41 97 1019.3
20260903004554 18 0 0.0 3.2 0.00 0.48 0.41 97 1019.1
20260903003054 18 0 0.0 0.0 0.00 0.48 0.41 97 1019.6
20260903001601 18 0 0.0 0.0 0.00 0.48 0.41 97 1019.0
20260903000059 18 0 0.0 1.6 0.00 0.48 0.41 97 1018.9
20260902234559 18 0 0.0 0.0 0.00 0.48 0.41 97 1018.6
20260902233051 18 0 0.0 0.0 0.00 0.48 0.41 97 1018.7
20260902231608 18 0 0.0 3.2 0.00 0.48 0.41 97 1018.9
20260902230100 18 0 0.0 0.0 0.00 0.48 0.41 97 1018.9
20260902224606 18 0 0.0 0.0 0.00 0.48 0.41 96 1019.1
20260902223056 18 360 0.0 1.6 0.00 0.48 0.41 96 1019.6
20260902221627 18 0 0.0 1.6 0.00 0.48 0.41 96 1019.4
20260902214602 19 0 0.0 1.6 0.00 0.48 0.41 96 1019.8
20260902213053 19 0 0.0 1.6 0.00 0.48 0.41 96 1019.5
20260902211602 19 0 0.0 0.0 0.00 0.48 0.41 96 1019.4
20260902210059 19 0 0.0 0.0 0.00 0.48 0.41 96 1019.5
20260902204558 20 0 0.0 1.6 0.00 0.48 0.41 96 1019.6
20260902203055 20 0 0.0 4.8 0.00 0.48 0.41 98 1019.3
20260902201559 19 0 0.0 0.0 0.00 0.48 0.41 98 1019.5
20260902200059 19 0 0.0 0.0 0.05 0.48 0.41 98 1019.6
20260902194558 19 0 0.0 1.6 0.10 0.48 0.41 99 1019.6
20260902193105 19 0 0.0 0.0 0.28 0.48 0.41 98 1019.7
20260902191631 19 0 0.0 0.0 0.33 0.48 0.41 98 1020.1
20260902190100 18 0 0.0 0.0 0.28 0.43 0.36 97 1020.2
20260902184600 19 0 0.0 1.6 0.23 0.41 0.30 96 1020.4
20260902183122 20 0 0.0 0.0 0.03 0.20 0.10 94 1020.8
20260902181607 20 0 0.0 0.0 0.00 0.18 0.08 93 1020.4
20260902180105 20 0 0.0 0.0 0.00 0.18 0.08 92 1020.0
20260902174558 20 0 0.0 1.6 0.00 0.23 0.08 91 1020.1
20260902173105 20 0 0.0 6.4 0.00 0.23 0.08 91 1020.2
20260902171614 20 0 0.0 8.0 0.00 0.23 0.08 91 1020.1
20260902170106 20 0 0.0 4.8 0.00 0.23 0.08 93 1020.0
20260902164602 19 0 0.0 0.0 0.00 0.25 0.08 95 1020.4
20260902163103 19 0 0.0 0.0 0.00 0.25 0.08 95 1020.7
20260902161558 19 0 0.0 0.0 0.00 0.25 0.08 95 1020.6
20260902160105 18 0 0.0 0.0 0.00 0.25 0.08 96 1020.5
20260902154549 18 0 0.0 0.0 0.00 0.43 0.08 97 1020.7
20260902153053 18 0 0.0 0.0 0.00 0.43 0.08 98 1020.6
20260902151556 18 0 0.0 0.0 0.00 0.43 0.08 98 1020.8
20260902150052 18 0 0.0 0.0 0.00 0.43 0.08 98 1021.0
20260902144548 18 0 0.0 0.0 0.00 0.53 0.08 99 1020.7
20260902143101 17 0 0.0 0.0 0.00 0.53 0.08 100 1020.7
20260902141554 17 0 0.0 0.0 0.00 0.53 0.08 99 1020.8
20260902140052 17 0 0.0 0.0 0.00 0.53 0.08 100 1020.8
20260902134555 17 0 0.0 0.0 0.00 0.53 0.08 100 1020.9
20260902133105 17 0 0.0 0.0 0.00 0.53 0.08 100 1020.7
20260902131556 17 0 0.0 0.0 0.00 0.53 0.08 100 1020.3
20260902130051 17 0 0.0 0.0 0.00 0.53 0.08 100 1020.3
20260902124549 16 0 0.0 0.0 0.00 0.53 0.08 100 1020.4
20260902123053 16 0 0.0 0.0 0.00 0.53 0.08 100 1020.2
20260902121553 16 0 0.0 0.0 0.00 0.53 0.08 100 1020.1
20260902120050 17 0 0.0 0.0 0.00 0.53 0.08 100 1020.2
20260902114549 17 0 0.0 0.0 0.00 0.53 0.08 100 1020.1
20260902113049 17 0 0.0 1.6 0.00 0.53 0.08 100 1020.1
20260902111605 17 0 0.0 0.0 0.00 0.53 0.08 100 1019.9
20260902110053 17 0 0.0 0.0 0.00 0.53 0.08 100 1019.9
20260902104615 17 0 0.0 0.0 0.00 0.53 0.08 100 1019.9
20260902103059 17 0 0.0 0.0 0.00 0.53 0.08 100 1020.0
20260902101553 17 0 0.0 0.0 0.00 0.53 0.08 100 1019.6
20260902100055 17 0 0.0 0.0 0.03 0.53 0.08 99 1019.5
20260902094551 17 0 0.0 1.6 0.03 0.53 0.08 100 1019.5
20260902093105 17 0 0.0 0.0 0.03 0.53 0.08 100 1019.3
20260902091553 17 0 0.0 0.0 0.05 0.53 0.08 100 1019.4
20260902090051 17 0 0.0 0.0 0.03 0.51 0.05 100 1019.4
20260902084549 17 0 0.0 0.0 0.03 0.51 0.05 99 1019.4
20260902083058 17 0 0.0 0.0 0.03 0.51 0.05 99 1019.1
20260902081554 17 0 0.0 0.0 0.00 0.48 0.03 99 1018.8
20260902080051 17 0 0.0 0.0 0.00 0.48 0.03 99 1018.7
20260902074609 17 0 0.0 4.8 0.00 0.48 0.03 99 1018.5
20260902073102 17 0 0.0 4.8 0.00 0.48 0.03 99 1018.5
20260902071554 17 0 0.0 0.0 0.00 0.48 0.03 99 1018.3
20260902070105 17 0 0.0 0.0 0.03 0.48 0.03 99 1018.4
20260902064555 17 0 0.0 0.0 0.03 0.74 0.03 99 1018.5
20260902063059 17 0 0.0 0.0 0.03 0.74 0.03 99 1018.7
20260902060058 17 0 0.0 0.0 0.00 0.71 0.00 99 1018.8
20260902054613 17 0 0.0 0.0 0.00 0.91 0.00 98 1018.9
20260902053106 17 0 0.0 0.0 0.00 0.91 0.00 98 1018.7
20260902051556 17 0 0.0 0.0 0.00 0.91 0.00 98 1018.5
20260902050106 17 0 0.0 0.0 0.00 0.91 0.00 98 1018.7
20260902044607 17 0 0.0 0.0 0.00 1.65 0.00 98 1018.8
20260902043105 17 0 0.0 0.0 0.00 1.65 0.00 97 1018.6
20260902041556 18 0 0.0 0.0 0.00 1.65 0.00 97 1018.6
20260902040107 18 0 0.0 6.4 0.00 1.65 0.00 97 1018.5
20260902034605 18 0 0.0 3.2 0.00 1.80 1.65 97 1018.2
20260902033059 18 0 0.0 1.6 0.00 1.80 1.65 97 1017.9
20260902031601 18 0 0.0 1.6 0.00 1.80 1.65 97 1017.6